Weather History for LTAY - October, 2012

Change the Weather History Date:

Friday, October 12, 2012

  Actual Average Record
Temperature  
Mean Temperature 58 °F -  
Max Temperature 75 °F - - ()
Min Temperature 42 °F - - ()
Degree Days  
Heating Degree Days 6    
Growing Degree Days 8 (Base 50)    
Moisture  
Dew Point 44 °F    
Average Humidity 60    
Maximum Humidity 93    
Minimum Humidity 27    
Precipitation  
Precipitation 0.00 in - - ()
Sea Level Pressure  
Sea Level Pressure 30.08 in    
Wind  
Wind Speed 3 mph ()    
Max Wind Speed 10 mph    
Max Gust Speed -    
Visibility 6.2 miles    
Events      
T = Trace of Precipitation, MM = Missing Value Source: Averaged Metar Reports

Daily Weather History Graph

Daily Weather History Graph

Search for Another Location

Airport or City:

Trip Planner

Search our weather history database for the weather conditions in past years. The results will help you decide how hot, cold, wet, or windy it might be!

Date:

Astronomy

Oct. 12, 2012 Rise Set
Actual Time 7:06 AM EEST 6:27 PM EEST
Civil Twilight 6:40 AM EEST 6:54 PM EEST
Nautical Twilight 6:10 AM EEST 7:24 PM EEST
Astronomical Twilight 5:39 AM EEST 7:54 PM EEST
Moon 3:31 AM EEST (10/12) 4:23 PM EEST (10/12)
Length of Visible Light 12h 13m
Length of Day
11h 20m
Waning Crescent, 13% of the Moon is Illuminated
Oct 12
Waning Crescent
Oct 15
New
Oct 22
First Quarter
Oct 29
Full
Nov 7
Last Quarter

Hourly Weather History & Observations

Time (EEST) Temp. Dew Point Humidity Pressure Visibility Wind Dir Wind Speed Gust Speed Precip Events Conditions
12:50 AM 51.8 °F 44.6 °F 76% 30.04 in - SW 5.8 mph - N/A   Clear
1:50 AM 50.0 °F 44.6 °F 82% 30.04 in - West 1.2 mph - N/A   Clear
2:50 AM 50.0 °F 44.6 °F 82% 30.04 in - Calm Calm - N/A   Clear
3:50 AM 48.2 °F 44.6 °F 87% 30.04 in - Calm Calm - N/A   Clear
4:50 AM 44.6 °F 41.0 °F 87% 30.06 in - Calm Calm - N/A   Clear
6:50 AM 46.4 °F 42.8 °F 87% 30.09 in - Calm Calm - N/A   Clear
7:50 AM 42.8 °F 41.0 °F 93% 30.09 in - East 1.2 mph - N/A   Clear
8:50 AM 53.6 °F 46.4 °F 77% 30.09 in - East 4.6 mph - N/A   Clear
9:50 AM 57.2 °F 48.2 °F 72% 30.12 in - East 9.2 mph - N/A   Clear
10:50 AM 62.6 °F 48.2 °F 59% 30.12 in - East 10.4 mph - N/A   Clear
11:50 AM 66.2 °F 46.4 °F 49% 30.12 in - ENE 8.1 mph - N/A   Clear
12:50 PM 69.8 °F 44.6 °F 40% 30.09 in 6.2 mi East 8.1 mph - N/A   Scattered Clouds
1:50 PM 73.4 °F 42.8 °F 33% 30.09 in 6.2 mi East 5.8 mph - N/A   Scattered Clouds
2:50 PM 75.2 °F 42.8 °F 31% 30.06 in 6.2 mi NNW 3.5 mph - N/A   Scattered Clouds
3:50 PM 75.2 °F 41.0 °F 29% 30.06 in 6.2 mi Variable 2.3 mph - N/A   Mostly Cloudy
4:50 PM 75.2 °F 39.2 °F 27% 30.06 in 6.2 mi WNW 3.5 mph - N/A   Mostly Cloudy
5:50 PM 71.6 °F 44.6 °F 38% 30.06 in 6.2 mi WNW 10.4 mph - N/A   Mostly Cloudy
7:50 PM 64.4 °F 44.6 °F 49% 30.09 in - West 6.9 mph - N/A   Clear
8:50 PM 59.0 °F 44.6 °F 59% 30.12 in - West 2.3 mph - N/A   Clear
9:50 PM 60.8 °F 44.6 °F 55% 30.12 in - WSW 4.6 mph - N/A   Clear
10:50 PM 59.0 °F 44.6 °F 59% 30.12 in - West 3.5 mph - N/A   Clear
11:50 PM 57.2 °F 42.8 °F 59% 30.12 in - WSW 5.8 mph - N/A   Clear